Time,TemperatureF,DewpointF,PressureIn,WindDirection,WindDirectionDegrees,WindSpeedMPH,WindSpeedGustMPH,Humidity,HourlyPrecipIn,Conditions,Clouds,dailyrainin,SoftwareType,DateUTC
2013-04-15 00:00:00,50.2,36.3,30.25,ESE,108,1.0,4.0,59,0.00,,,0.00,meteohub,2013-04-15 04:00:00,
2013-04-15 00:05:00,50.0,35.8,30.25,ESE,118,2.0,4.0,58,0.00,,,0.00,meteohub,2013-04-15 04:05:00,
2013-04-15 00:10:00,49.8,35.2,30.26,ENE,78,1.0,4.0,57,0.00,,,0.00,meteohub,2013-04-15 04:10:00,
2013-04-15 00:15:00,49.8,35.6,30.26,East,101,3.0,4.0,58,0.00,,,0.00,meteohub,2013-04-15 04:15:00,
2013-04-15 00:20:00,49.8,34.7,30.26,ENE,70,2.0,4.0,56,0.00,,,0.00,meteohub,2013-04-15 04:20:00,
2013-04-15 00:25:00,49.8,33.4,30.26,ESE,110,1.0,4.0,53,0.00,,,0.00,meteohub,2013-04-15 04:25:00,
2013-04-15 00:30:00,49.6,33.3,30.27,SE,131,2.0,4.0,53,0.00,,,0.00,meteohub,2013-04-15 04:30:00,
2013-04-15 00:35:00,49.6,32.7,30.27,ENE,75,1.0,4.0,52,0.00,,,0.00,meteohub,2013-04-15 04:35:00,
2013-04-15 00:40:00,49.5,32.5,30.27,East,82,1.0,3.0,52,0.00,,,0.00,meteohub,2013-04-15 04:40:00,
2013-04-15 00:45:00,49.5,32.0,30.27,ENE,70,2.0,3.0,51,0.00,,,0.00,meteohub,2013-04-15 04:45:00,
2013-04-15 00:50:00,49.3,32.4,30.27,East,98,1.0,3.0,52,0.00,,,0.00,meteohub,2013-04-15 04:50:00,
2013-04-15 00:55:00,49.1,31.8,30.27,ENE,75,0.0,3.0,51,0.00,,,0.00,meteohub,2013-04-15 04:55:00,
2013-04-15 01:00:00,48.9,32.0,30.27,ESE,103,1.0,3.0,52,0.00,,,0.00,meteohub,2013-04-15 05:00:00,
2013-04-15 01:05:00,48.9,32.0,30.26,East,96,1.0,5.0,52,0.00,,,0.00,meteohub,2013-04-15 05:05:00,
2013-04-15 01:10:00,48.7,32.4,30.26,ENE,78,1.0,5.0,53,0.00,,,0.00,meteohub,2013-04-15 05:10:00,
2013-04-15 01:15:00,48.7,31.8,30.26,East,79,2.0,5.0,52,0.00,,,0.00,meteohub,2013-04-15 05:15:00,
2013-04-15 01:20:00,48.7,31.5,30.26,East,89,2.0,5.0,51,0.00,,,0.00,meteohub,2013-04-15 05:20:00,
2013-04-15 01:26:00,48.7,31.5,30.26,ENE,76,2.0,5.0,51,0.00,,,0.00,meteohub,2013-04-15 05:26:00,
2013-04-15 01:30:00,48.6,31.3,30.26,ESE,110,2.0,5.0,51,0.00,,,0.00,meteohub,2013-04-15 05:30:00,
2013-04-15 01:35:00,48.4,31.6,30.26,ESE,105,3.0,5.0,52,0.00,,,0.00,meteohub,2013-04-15 05:35:00,
2013-04-15 01:40:00,48.4,31.6,30.26,East,100,1.0,6.0,52,0.00,,,0.00,meteohub,2013-04-15 05:40:00,
2013-04-15 01:46:00,48.2,30.9,30.26,East,89,2.0,6.0,51,0.00,,,0.00,meteohub,2013-04-15 05:46:00,
2013-04-15 01:50:00,48.0,30.7,30.26,ESE,102,2.0,6.0,51,0.00,,,0.00,meteohub,2013-04-15 05:50:00,
2013-04-15 01:56:00,47.8,30.6,30.26,ENE,78,2.0,3.0,51,0.00,,,0.00,meteohub,2013-04-15 05:56:00,
2013-04-15 02:01:00,47.8,30.6,30.26,ENE,78,0.0,3.0,51,0.00,,,0.00,meteohub,2013-04-15 06:01:00,
2013-04-15 02:06:00,47.7,30.9,30.26,ENE,78,0.0,3.0,52,0.00,,,0.00,meteohub,2013-04-15 06:06:00,
2013-04-15 02:11:00,47.5,31.6,30.27,East,94,1.0,3.0,54,0.00,,,0.00,meteohub,2013-04-15 06:11:00,
2013-04-15 02:16:00,47.5,31.6,30.27,East,91,0.0,2.0,54,0.00,,,0.00,meteohub,2013-04-15 06:16:00,
2013-04-15 02:21:00,47.1,31.3,30.27,East,89,2.0,2.0,54,0.00,,,0.00,meteohub,2013-04-15 06:21:00,
2013-04-15 02:26:00,47.1,31.3,30.27,East,98,0.0,2.0,54,0.00,,,0.00,meteohub,2013-04-15 06:26:00,
2013-04-15 02:31:00,47.1,31.3,30.27,East,93,1.0,2.0,54,0.00,,,0.00,meteohub,2013-04-15 06:31:00,
2013-04-15 02:36:00,46.9,30.7,30.27,East,90,0.0,2.0,53,0.00,,,0.00,meteohub,2013-04-15 06:36:00,
2013-04-15 02:41:00,46.9,30.2,30.28,ESE,110,1.0,4.0,52,0.00,,,0.00,meteohub,2013-04-15 06:41:00,
2013-04-15 02:46:00,46.9,29.8,30.28,East,101,1.0,4.0,51,0.00,,,0.00,meteohub,2013-04-15 06:46:00,
2013-04-15 02:52:00,46.9,30.2,30.28,SE,131,2.0,4.0,52,0.00,,,0.00,meteohub,2013-04-15 06:52:00,
2013-04-15 02:57:00,46.9,30.2,30.28,East,89,1.0,4.0,52,0.00,,,0.00,meteohub,2013-04-15 06:57:00,
2013-04-15 03:02:00,46.8,30.6,30.28,East,98,0.0,3.0,53,0.00,,,0.00,meteohub,2013-04-15 07:02:00,
2013-04-15 03:41:00,46.4,31.1,30.30,ESE,106,1.0,4.0,55,0.00,,,0.00,meteohub,2013-04-15 07:41:00,
2013-04-15 03:42:00,46.2,31.5,30.30,ESE,105,1.0,4.0,56,0.00,,,0.00,meteohub,2013-04-15 07:42:00,
2013-04-15 03:47:00,46.2,30.9,30.30,ESE,106,0.0,2.0,55,0.00,,,0.00,meteohub,2013-04-15 07:47:00,
2013-04-15 03:48:00,46.2,30.9,30.30,ESE,106,0.0,2.0,55,0.00,,,0.00,meteohub,2013-04-15 07:48:00,
2013-04-15 03:53:00,46.0,30.7,30.31,ESE,106,0.0,1.0,55,0.00,,,0.00,meteohub,2013-04-15 07:53:00,
2013-04-15 03:54:00,46.0,30.7,30.30,ESE,107,1.0,1.0,55,0.00,,,0.00,meteohub,2013-04-15 07:54:00,
2013-04-15 03:59:00,46.0,30.4,30.30,ESE,115,0.0,1.0,54,0.00,,,0.00,meteohub,2013-04-15 07:59:00,
2013-04-15 04:04:00,46.0,30.4,30.31,SSE,152,0.0,1.0,54,0.00,,,0.00,meteohub,2013-04-15 08:04:00,
2013-04-15 04:09:00,46.0,30.4,30.31,ESE,115,0.0,1.0,54,0.00,,,0.00,meteohub,2013-04-15 08:09:00,
2013-04-15 04:15:00,46.0,29.8,30.31,SSE,157,1.0,2.0,53,0.00,,,0.00,meteohub,2013-04-15 08:15:00,
2013-04-15 04:20:00,45.9,30.2,30.32,SE,141,0.0,2.0,54,0.00,,,0.00,meteohub,2013-04-15 08:20:00,
2013-04-15 04:25:00,45.9,30.2,30.32,SE,141,0.0,2.0,54,0.00,,,0.00,meteohub,2013-04-15 08:25:00,
2013-04-15 04:30:00,45.9,30.2,30.32,SE,141,0.0,1.0,54,0.00,,,0.00,meteohub,2013-04-15 08:30:00,
2013-04-15 04:35:00,45.7,30.4,30.32,SE,141,0.0,1.0,55,0.00,,,0.00,meteohub,2013-04-15 08:35:00,
2013-04-15 04:40:00,45.7,29.5,30.32,SE,141,0.0,0.0,53,0.00,,,0.00,meteohub,2013-04-15 08:40:00,
2013-04-15 04:41:00,45.7,29.5,30.32,SE,141,0.0,0.0,53,0.00,,,0.00,meteohub,2013-04-15 08:41:00,
2013-04-15 04:45:00,45.7,30.4,30.32,SE,141,0.0,0.0,55,0.00,,,0.00,meteohub,2013-04-15 08:45:00,
2013-04-15 04:51:00,45.5,30.2,30.32,SE,141,0.0,1.0,55,0.00,,,0.00,meteohub,2013-04-15 08:51:00,
2013-04-15 04:56:00,45.3,30.6,30.32,SE,141,0.0,1.0,56,0.00,,,0.00,meteohub,2013-04-15 08:56:00,
2013-04-15 05:01:00,45.1,30.7,30.33,SE,141,0.0,1.0,57,0.00,,,0.00,meteohub,2013-04-15 09:01:00,
2013-04-15 05:06:00,45.1,30.4,30.33,SE,141,0.0,0.0,56,0.00,,,0.00,meteohub,2013-04-15 09:06:00,
2013-04-15 05:11:00,45.1,30.7,30.33,SE,140,0.0,0.0,57,0.00,,,0.00,meteohub,2013-04-15 09:11:00,
2013-04-15 05:16:00,45.1,31.3,30.33,SE,139,0.0,0.0,58,0.00,,,0.00,meteohub,2013-04-15 09:16:00,
2013-04-15 05:21:00,45.0,31.1,30.34,SE,139,0.0,0.0,58,0.00,,,0.00,meteohub,2013-04-15 09:21:00,
2013-04-15 05:26:00,45.0,31.1,30.34,SE,140,0.0,0.0,58,0.00,,,0.00,meteohub,2013-04-15 09:26:00,
2013-04-15 05:31:00,45.1,31.6,30.34,SE,140,0.0,1.0,59,0.00,,,0.00,meteohub,2013-04-15 09:31:00,
2013-04-15 05:37:00,45.5,31.6,30.34,SE,140,0.0,1.0,58,0.00,,,0.00,meteohub,2013-04-15 09:37:00,
2013-04-15 05:42:00,45.7,31.8,30.34,East,82,1.0,1.0,58,0.00,,,0.00,meteohub,2013-04-15 09:42:00,
2013-04-15 05:47:00,45.9,31.5,30.34,East,87,1.0,2.0,57,0.00,,,0.00,meteohub,2013-04-15 09:47:00,
2013-04-15 05:52:00,45.9,31.1,30.34,East,91,1.0,2.0,56,0.00,,,0.00,meteohub,2013-04-15 09:52:00,
2013-04-15 05:57:00,45.9,31.5,30.34,East,91,1.0,2.0,57,0.00,,,0.00,meteohub,2013-04-15 09:57:00,
2013-04-15 06:02:00,46.0,31.3,30.34,East,85,1.0,2.0,56,0.00,,,0.00,meteohub,2013-04-15 10:02:00,
2013-04-15 06:07:00,46.0,30.7,30.34,East,94,1.0,3.0,55,0.00,,,0.00,meteohub,2013-04-15 10:07:00,
2013-04-15 06:12:00,46.0,31.3,30.34,East,94,0.0,3.0,56,0.00,,,0.00,meteohub,2013-04-15 10:12:00,
2013-04-15 06:17:00,45.9,31.5,30.34,East,79,0.0,3.0,57,0.00,,,0.00,meteohub,2013-04-15 10:17:00,
2013-04-15 06:22:00,45.9,31.5,30.35,ESE,117,0.0,2.0,57,0.00,,,0.00,meteohub,2013-04-15 10:22:00,
2013-04-15 06:27:00,45.9,31.1,30.35,ESE,117,0.0,2.0,56,0.00,,,0.00,meteohub,2013-04-15 10:27:00,
2013-04-15 06:32:00,45.7,31.3,30.35,ESE,117,0.0,2.0,57,0.00,,,0.00,meteohub,2013-04-15 10:32:00,
2013-04-15 06:37:00,45.7,31.3,30.35,East,100,0.0,1.0,57,0.00,,,0.00,meteohub,2013-04-15 10:37:00,
2013-04-15 06:42:00,45.9,31.5,30.35,East,82,0.0,3.0,57,0.00,,,0.00,meteohub,2013-04-15 10:42:00,
2013-04-15 06:47:00,45.9,31.5,30.35,East,95,0.0,3.0,57,0.00,,,0.00,meteohub,2013-04-15 10:47:00,
2013-04-15 06:52:00,45.9,31.5,30.35,East,93,1.0,3.0,57,0.00,,,0.00,meteohub,2013-04-15 10:52:00,
2013-04-15 06:57:00,45.9,32.0,30.36,East,79,0.0,2.0,58,0.00,,,0.00,meteohub,2013-04-15 10:57:00,
2013-04-15 07:02:00,45.9,32.0,30.36,East,79,0.0,2.0,58,0.00,,,0.00,meteohub,2013-04-15 11:02:00,
2013-04-15 07:07:00,45.9,32.0,30.36,East,79,1.0,2.0,58,0.00,,,0.00,meteohub,2013-04-15 11:07:00,
2013-04-15 07:12:00,45.9,31.5,30.37,ESE,110,2.0,3.0,57,0.00,,,0.00,meteohub,2013-04-15 11:12:00,
2013-04-15 07:17:00,46.0,31.6,30.37,East,95,0.0,3.0,57,0.00,,,0.00,meteohub,2013-04-15 11:17:00,
2013-04-15 07:22:00,46.2,32.2,30.37,East,95,0.0,3.0,58,0.00,,,0.00,meteohub,2013-04-15 11:22:00,
2013-04-15 07:27:00,46.2,32.2,30.38,East,87,1.0,3.0,58,0.00,,,0.00,meteohub,2013-04-15 11:27:00,
2013-04-15 07:32:00,46.6,31.6,30.37,ESE,105,2.0,5.0,56,0.00,,,0.00,meteohub,2013-04-15 11:32:00,
2013-04-15 07:37:00,46.8,32.4,30.37,ESE,103,1.0,5.0,57,0.00,,,0.00,meteohub,2013-04-15 11:37:00,
2013-04-15 07:42:00,46.8,32.4,30.38,ESE,119,0.0,5.0,57,0.00,,,0.00,meteohub,2013-04-15 11:42:00,
2013-04-15 07:48:00,46.9,32.5,30.38,East,98,2.0,3.0,57,0.00,,,0.00,meteohub,2013-04-15 11:48:00,
2013-04-15 07:53:00,47.1,33.1,30.38,ENE,71,3.0,4.0,58,0.00,,,0.00,meteohub,2013-04-15 11:53:00,
2013-04-15 07:58:00,47.1,33.1,30.38,ESE,113,0.0,4.0,58,0.00,,,0.00,meteohub,2013-04-15 11:58:00,
2013-04-15 08:03:00,47.1,33.4,30.39,ESE,115,0.0,4.0,59,0.00,,,0.00,meteohub,2013-04-15 12:03:00,
2013-04-15 08:08:00,47.3,33.6,30.39,ESE,103,3.0,5.0,59,0.00,,,0.00,meteohub,2013-04-15 12:08:00,
2013-04-15 08:13:00,47.3,33.6,30.39,SE,127,2.0,5.0,59,0.00,,,0.00,meteohub,2013-04-15 12:13:00,
2013-04-15 08:18:00,47.5,33.8,30.40,ESE,111,1.0,5.0,59,0.00,,,0.00,meteohub,2013-04-15 12:18:00,
2013-04-15 08:23:00,47.7,34.9,30.40,ENE,63,1.0,5.0,61,0.00,,,0.00,meteohub,2013-04-15 12:23:00,
2013-04-15 08:28:00,47.7,34.9,30.40,ESE,102,1.0,4.0,61,0.00,,,0.00,meteohub,2013-04-15 12:28:00,
2013-04-15 08:33:00,47.7,34.9,30.40,SE,134,1.0,4.0,61,0.00,,,0.00,meteohub,2013-04-15 12:33:00,
2013-04-15 08:39:00,47.8,35.4,30.41,ESE,106,2.0,4.0,62,0.00,,,0.00,meteohub,2013-04-15 12:39:00,
2013-04-15 08:44:00,47.8,35.4,30.41,SSE,149,1.0,4.0,62,0.00,,,0.00,meteohub,2013-04-15 12:44:00,
2013-04-15 08:49:00,47.8,35.1,30.41,East,86,2.0,8.0,61,0.00,,,0.00,meteohub,2013-04-15 12:49:00,
2013-04-15 08:54:00,47.8,35.1,30.41,East,100,1.0,8.0,61,0.00,,,0.00,meteohub,2013-04-15 12:54:00,
2013-04-15 08:59:00,47.8,35.1,30.41,East,99,2.0,8.0,61,0.00,,,0.00,meteohub,2013-04-15 12:59:00,
2013-04-15 09:05:00,48.0,34.3,30.41,SE,127,2.0,8.0,59,0.00,,,0.00,meteohub,2013-04-15 13:05:00,
2013-04-15 09:10:00,48.6,34.5,30.40,SSE,150,3.0,7.0,58,0.00,,,0.00,meteohub,2013-04-15 13:10:00,
2013-04-15 09:15:00,48.6,33.6,30.40,ESE,115,5.0,9.0,56,0.00,,,0.00,meteohub,2013-04-15 13:15:00,
2013-04-15 09:20:00,48.6,33.6,30.40,ENE,76,3.0,9.0,56,0.00,,,0.00,meteohub,2013-04-15 13:20:00,
2013-04-15 09:25:00,48.7,33.8,30.40,ESE,112,3.0,9.0,56,0.00,,,0.00,meteohub,2013-04-15 13:25:00,
2013-04-15 09:30:00,48.9,33.1,30.40,ESE,120,4.0,8.0,54,0.00,,,0.00,meteohub,2013-04-15 13:30:00,
2013-04-15 09:35:00,48.9,33.1,30.39,East,86,2.0,7.0,54,0.00,,,0.00,meteohub,2013-04-15 13:35:00,
2013-04-15 09:40:00,49.3,33.3,30.39,SE,124,4.0,7.0,54,0.00,,,0.00,meteohub,2013-04-15 13:40:00,
2013-04-15 09:45:00,49.5,33.1,30.39,East,101,3.0,7.0,53,0.00,,,0.00,meteohub,2013-04-15 13:45:00,
2013-04-15 09:50:00,49.6,32.7,30.39,ESE,104,5.0,7.0,52,0.00,,,0.00,meteohub,2013-04-15 13:50:00,
2013-04-15 09:55:00,49.8,32.9,30.39,SE,124,5.0,7.0,52,0.00,,,0.00,meteohub,2013-04-15 13:55:00,
2013-04-15 10:01:00,50.0,32.5,30.39,SSE,163,5.0,7.0,51,0.00,,,0.00,meteohub,2013-04-15 14:01:00,
2013-04-15 10:06:00,50.5,33.6,30.39,ESE,104,3.0,7.0,52,0.00,,,0.00,meteohub,2013-04-15 14:06:00,
2013-04-15 10:11:00,50.7,33.3,30.38,SE,124,5.0,7.0,51,0.00,,,0.00,meteohub,2013-04-15 14:11:00,
2013-04-15 10:16:00,50.4,32.4,30.38,East,89,5.0,9.0,50,0.00,,,0.00,meteohub,2013-04-15 14:16:00,
2013-04-15 10:21:00,50.4,33.8,30.38,East,87,2.0,9.0,53,0.00,,,0.00,meteohub,2013-04-15 14:21:00,
2013-04-15 10:26:00,50.5,32.5,30.38,East,96,4.0,9.0,50,0.00,,,0.00,meteohub,2013-04-15 14:26:00,
2013-04-15 10:32:00,50.5,33.6,30.38,ESE,104,4.0,7.0,52,0.00,,,0.00,meteohub,2013-04-15 14:32:00,
2013-04-15 10:37:00,50.2,33.3,30.39,East,85,5.0,7.0,52,0.00,,,0.00,meteohub,2013-04-15 14:37:00,
2013-04-15 10:42:00,50.2,33.6,30.39,East,89,2.0,10.0,53,0.00,,,0.00,meteohub,2013-04-15 14:42:00,
2013-04-15 10:47:00,50.7,34.2,30.39,NE,46,2.0,10.0,53,0.00,,,0.00,meteohub,2013-04-15 14:47:00,
2013-04-15 10:52:00,51.1,34.0,30.39,East,88,3.0,10.0,52,0.00,,,0.00,meteohub,2013-04-15 14:52:00,
2013-04-15 10:57:00,51.3,33.8,30.39,ENE,58,4.0,7.0,51,0.00,,,0.00,meteohub,2013-04-15 14:57:00,
2013-04-15 11:02:00,51.3,33.8,30.39,ESE,110,2.0,7.0,51,0.00,,,0.00,meteohub,2013-04-15 15:02:00,
2013-04-15 11:07:00,51.4,34.0,30.39,East,91,3.0,7.0,51,0.00,,,0.00,meteohub,2013-04-15 15:07:00,
2013-04-15 11:12:00,51.6,35.1,30.39,ENE,76,4.0,8.0,53,0.00,,,0.00,meteohub,2013-04-15 15:12:00,
2013-04-15 11:17:00,51.8,34.2,30.39,East,84,4.0,8.0,51,0.00,,,0.00,meteohub,2013-04-15 15:17:00,
2013-04-15 11:22:00,52.2,34.2,30.39,SE,135,1.0,8.0,50,0.00,,,0.00,meteohub,2013-04-15 15:22:00,
2013-04-15 11:27:00,52.3,34.2,30.38,ENE,77,5.0,6.0,50,0.00,,,0.00,meteohub,2013-04-15 15:27:00,
2013-04-15 11:33:00,52.2,34.2,30.38,ESE,103,4.0,7.0,50,0.00,,,0.00,meteohub,2013-04-15 15:33:00,
2013-04-15 11:38:00,52.9,34.7,30.39,ESE,106,4.0,7.0,50,0.00,,,0.00,meteohub,2013-04-15 15:38:00,
2013-04-15 11:43:00,52.5,33.4,30.38,East,96,3.0,8.0,48,0.00,,,0.00,meteohub,2013-04-15 15:43:00,
2013-04-15 11:48:00,52.5,34.3,30.38,ENE,74,3.0,8.0,50,0.00,,,0.00,meteohub,2013-04-15 15:48:00,
2013-04-15 11:53:00,52.9,34.7,30.38,East,100,4.0,8.0,50,0.00,,,0.00,meteohub,2013-04-15 15:53:00,
2013-04-15 11:58:00,52.7,35.1,30.38,ENE,74,5.0,8.0,51,0.00,,,0.00,meteohub,2013-04-15 15:58:00,
2013-04-15 12:03:00,53.4,35.2,30.38,East,96,5.0,11.0,50,0.00,,,0.00,meteohub,2013-04-15 16:03:00,
2013-04-15 12:08:00,53.4,34.7,30.38,ESE,110,6.0,11.0,49,0.00,,,0.00,meteohub,2013-04-15 16:08:00,
2013-04-15 12:13:00,53.4,34.7,30.38,ESE,121,4.0,11.0,49,0.00,,,0.00,meteohub,2013-04-15 16:13:00,
2013-04-15 12:18:00,54.0,35.2,30.38,ENE,68,3.0,9.0,49,0.00,,,0.00,meteohub,2013-04-15 16:18:00,
2013-04-15 12:23:00,53.8,34.5,30.37,East,99,5.0,9.0,48,0.00,,,0.00,meteohub,2013-04-15 16:23:00,
2013-04-15 12:28:00,53.8,33.4,30.38,SSE,152,4.0,9.0,46,0.00,,,0.00,meteohub,2013-04-15 16:28:00,
2013-04-15 12:34:00,53.4,33.6,30.37,ENE,77,3.0,12.0,47,0.00,,,0.00,meteohub,2013-04-15 16:34:00,
2013-04-15 12:39:00,53.2,34.0,30.37,ESE,117,7.0,12.0,48,0.00,,,0.00,meteohub,2013-04-15 16:39:00,
2013-04-15 12:44:00,53.2,34.5,30.37,ENE,77,2.0,12.0,49,0.00,,,0.00,meteohub,2013-04-15 16:44:00,
2013-04-15 12:49:00,54.1,34.9,30.37,East,84,4.0,11.0,48,0.00,,,0.00,meteohub,2013-04-15 16:49:00,
2013-04-15 12:54:00,54.0,34.2,30.37,South,175,5.0,11.0,47,0.00,,,0.00,meteohub,2013-04-15 16:54:00,
2013-04-15 12:59:00,54.1,34.9,30.37,East,84,6.0,10.0,48,0.00,,,0.00,meteohub,2013-04-15 16:59:00,
2013-04-15 13:04:00,53.8,34.5,30.37,SE,127,6.0,10.0,48,0.00,,,0.00,meteohub,2013-04-15 17:04:00,
2013-04-15 13:09:00,53.4,34.2,30.37,ESE,112,5.0,9.0,48,0.00,,,0.00,meteohub,2013-04-15 17:09:00,
2013-04-15 13:14:00,54.3,35.6,30.37,East,88,4.0,12.0,49,0.00,,,0.00,meteohub,2013-04-15 17:14:00,
2013-04-15 13:19:00,54.1,35.4,30.37,East,99,4.0,12.0,49,0.00,,,0.00,meteohub,2013-04-15 17:19:00,
2013-04-15 13:21:00,54.1,34.9,30.37,SE,131,3.0,12.0,48,0.00,,,0.00,meteohub,2013-04-15 17:21:00,
2013-04-15 13:25:00,54.0,35.8,30.37,ESE,115,5.0,12.0,50,0.00,,,0.00,meteohub,2013-04-15 17:25:00,
2013-04-15 13:30:00,54.1,35.4,30.37,East,79,6.0,10.0,49,0.00,,,0.00,meteohub,2013-04-15 17:30:00,
2013-04-15 13:35:00,54.0,35.2,30.37,East,94,5.0,11.0,49,0.00,,,0.00,meteohub,2013-04-15 17:35:00,
2013-04-15 13:40:00,54.1,36.0,30.36,ENE,76,6.0,11.0,50,0.00,,,0.00,meteohub,2013-04-15 17:40:00,
2013-04-15 13:45:00,54.1,36.0,30.36,ESE,114,6.0,11.0,50,0.00,,,0.00,meteohub,2013-04-15 17:45:00,
2013-04-15 13:50:00,54.3,36.1,30.37,East,85,4.0,8.0,50,0.00,,,0.00,meteohub,2013-04-15 17:50:00,
2013-04-15 13:55:00,54.1,36.0,30.37,SSE,156,5.0,7.0,50,0.00,,,0.00,meteohub,2013-04-15 17:55:00,
2013-04-15 14:00:00,54.1,36.3,30.36,ESE,121,1.0,7.0,51,0.00,,,0.00,meteohub,2013-04-15 18:00:00,
2013-04-15 14:05:00,54.5,36.3,30.36,ENE,71,2.0,7.0,50,0.00,,,0.00,meteohub,2013-04-15 18:05:00,
2013-04-15 14:10:00,54.7,36.9,30.36,ENE,67,9.0,9.0,51,0.00,,,0.00,meteohub,2013-04-15 18:10:00,
2013-04-15 14:15:00,54.3,36.5,30.37,ENE,74,6.0,9.0,51,0.00,,,0.00,meteohub,2013-04-15 18:15:00,
2013-04-15 14:20:00,54.1,36.3,30.36,ENE,70,4.0,10.0,51,0.00,,,0.00,meteohub,2013-04-15 18:20:00,
2013-04-15 14:25:00,54.3,37.6,30.36,ENE,63,4.0,11.0,53,0.00,,,0.00,meteohub,2013-04-15 18:25:00,
2013-04-15 14:29:00,54.5,36.3,30.36,ESE,110,3.0,11.0,50,0.00,,,0.00,meteohub,2013-04-15 18:29:00,
2013-04-15 14:30:00,54.7,36.3,30.36,ENE,59,2.0,11.0,50,0.00,,,0.00,meteohub,2013-04-15 18:30:00,
2013-04-15 14:35:00,54.9,36.5,30.37,ENE,77,5.0,11.0,50,0.00,,,0.00,meteohub,2013-04-15 18:35:00,
2013-04-15 14:40:00,55.2,37.4,30.37,East,98,3.0,11.0,51,0.00,,,0.00,meteohub,2013-04-15 18:40:00,
2013-04-15 14:45:00,55.6,37.2,30.37,East,96,5.0,9.0,50,0.00,,,0.00,meteohub,2013-04-15 18:45:00,
2013-04-15 14:50:00,55.0,36.7,30.37,East,86,4.0,8.0,50,0.00,,,0.00,meteohub,2013-04-15 18:50:00,
2013-04-15 14:55:00,55.0,37.8,30.36,ESE,103,4.0,8.0,52,0.00,,,0.00,meteohub,2013-04-15 18:55:00,
2013-04-15 15:00:00,55.8,37.4,30.36,ENE,74,7.0,10.0,50,0.00,,,0.00,meteohub,2013-04-15 19:00:00,
2013-04-15 15:05:00,55.2,38.3,30.36,East,79,6.0,10.0,53,0.00,,,0.00,meteohub,2013-04-15 19:05:00,
2013-04-15 15:10:00,55.2,37.9,30.36,ENE,65,2.0,10.0,52,0.00,,,0.00,meteohub,2013-04-15 19:10:00,
2013-04-15 15:15:00,54.9,37.6,30.36,SE,132,2.0,9.0,52,0.00,,,0.00,meteohub,2013-04-15 19:15:00,
2013-04-15 15:20:00,55.2,37.4,30.35,SE,129,6.0,9.0,51,0.00,,,0.00,meteohub,2013-04-15 19:20:00,
2013-04-15 15:25:00,55.0,37.8,30.35,SE,125,4.0,9.0,52,0.00,,,0.00,meteohub,2013-04-15 19:25:00,
2013-04-15 15:30:00,55.2,38.3,30.35,East,79,6.0,10.0,53,0.00,,,0.00,meteohub,2013-04-15 19:30:00,
2013-04-15 15:35:00,55.0,39.2,30.35,East,83,5.0,10.0,55,0.00,,,0.00,meteohub,2013-04-15 19:35:00,
2013-04-15 15:40:00,54.9,38.5,30.35,East,91,5.0,10.0,54,0.00,,,0.00,meteohub,2013-04-15 19:40:00,
2013-04-15 15:46:00,55.6,38.3,30.35,ENE,67,6.0,11.0,52,0.00,,,0.00,meteohub,2013-04-15 19:46:00,
2013-04-15 15:51:00,55.0,38.3,30.35,ESE,123,5.0,11.0,53,0.00,,,0.00,meteohub,2013-04-15 19:51:00,
2013-04-15 15:56:00,54.9,38.1,30.35,ESE,110,5.0,11.0,53,0.00,,,0.00,meteohub,2013-04-15 19:56:00,
2013-04-15 15:57:00,54.9,38.1,30.35,East,96,4.0,11.0,53,0.00,,,0.00,meteohub,2013-04-15 19:57:00,
2013-04-15 15:58:00,54.9,38.1,30.35,East,91,2.0,11.0,53,0.00,,,0.00,meteohub,2013-04-15 19:58:00,
2013-04-15 16:02:00,55.4,39.0,30.35,SE,129,4.0,11.0,54,0.00,,,0.00,meteohub,2013-04-15 20:02:00,
2013-04-15 16:03:00,55.4,38.1,30.35,ESE,108,7.0,11.0,52,0.00,,,0.00,meteohub,2013-04-15 20:03:00,
2013-04-15 16:08:00,55.2,38.3,30.34,ESE,122,4.0,11.0,53,0.00,,,0.00,meteohub,2013-04-15 20:08:00,
2013-04-15 16:13:00,55.9,38.5,30.34,ESE,118,3.0,10.0,52,0.00,,,0.00,meteohub,2013-04-15 20:13:00,
2013-04-15 16:18:00,55.6,38.3,30.34,ESE,108,6.0,10.0,52,0.00,,,0.00,meteohub,2013-04-15 20:18:00,
2013-04-15 16:23:00,55.0,38.3,30.34,East,94,7.0,10.0,53,0.00,,,0.00,meteohub,2013-04-15 20:23:00,
2013-04-15 16:28:00,54.1,37.9,30.35,East,96,3.0,10.0,54,0.00,,,0.00,meteohub,2013-04-15 20:28:00,
2013-04-15 16:33:00,54.1,38.3,30.35,East,83,3.0,10.0,55,0.00,,,0.00,meteohub,2013-04-15 20:33:00,
2013-04-15 16:38:00,54.3,38.5,30.35,ESE,108,4.0,8.0,55,0.00,,,0.00,meteohub,2013-04-15 20:38:00,
2013-04-15 16:43:00,54.1,37.4,30.35,ESE,120,8.0,10.0,53,0.00,,,0.00,meteohub,2013-04-15 20:43:00,
2013-04-15 16:48:00,54.0,37.8,30.35,ENE,73,5.0,10.0,54,0.00,,,0.00,meteohub,2013-04-15 20:48:00,
2013-04-15 16:53:00,54.0,38.1,30.35,SE,132,7.0,10.0,55,0.00,,,0.00,meteohub,2013-04-15 20:53:00,
2013-04-15 16:56:00,54.1,38.8,30.35,SE,142,3.0,10.0,56,0.00,,,0.00,meteohub,2013-04-15 20:56:00,
2013-04-15 17:02:00,54.3,38.5,30.35,ESE,104,4.0,8.0,55,0.00,,,0.00,meteohub,2013-04-15 21:02:00,
2013-04-15 17:11:00,54.1,38.8,30.35,ESE,112,5.0,12.0,56,0.00,,,0.00,meteohub,2013-04-15 21:11:00,
2013-04-15 17:16:00,53.8,38.8,30.35,East,92,4.0,12.0,57,0.00,,,0.00,meteohub,2013-04-15 21:16:00,
2013-04-15 17:22:00,53.6,38.3,30.35,East,85,6.0,12.0,56,0.00,,,0.00,meteohub,2013-04-15 21:22:00,
2013-04-15 17:27:00,54.0,39.6,30.35,ENE,70,3.0,10.0,58,0.00,,,0.00,meteohub,2013-04-15 21:27:00,
2013-04-15 17:32:00,53.8,38.8,30.36,ENE,72,6.0,7.0,57,0.00,,,0.00,meteohub,2013-04-15 21:32:00,
2013-04-15 17:37:00,53.2,38.5,30.36,SE,132,5.0,7.0,57,0.00,,,0.00,meteohub,2013-04-15 21:37:00,
2013-04-15 17:42:00,52.9,37.6,30.36,ESE,115,3.0,8.0,56,0.00,,,0.00,meteohub,2013-04-15 21:42:00,
2013-04-15 17:47:00,52.9,37.6,30.37,East,98,2.0,8.0,56,0.00,,,0.00,meteohub,2013-04-15 21:47:00,
2013-04-15 17:52:00,52.9,38.1,30.37,ESE,115,3.0,8.0,57,0.00,,,0.00,meteohub,2013-04-15 21:52:00,
2013-04-15 17:57:00,52.9,38.1,30.37,SE,143,3.0,6.0,57,0.00,,,0.00,meteohub,2013-04-15 21:57:00,
2013-04-15 18:02:00,52.5,38.1,30.37,East,79,2.0,7.0,58,0.00,,,0.00,meteohub,2013-04-15 22:02:00,
2013-04-15 18:07:00,52.3,38.8,30.37,ESE,113,3.0,7.0,60,0.00,,,0.00,meteohub,2013-04-15 22:07:00,
2013-04-15 18:12:00,52.2,38.3,30.36,East,83,3.0,7.0,59,0.00,,,0.00,meteohub,2013-04-15 22:12:00,
2013-04-15 18:17:00,52.3,39.4,30.37,SE,129,4.0,6.0,61,0.00,,,0.00,meteohub,2013-04-15 22:17:00,
2013-04-15 18:22:00,52.2,39.6,30.36,ESE,115,4.0,7.0,62,0.00,,,0.00,meteohub,2013-04-15 22:22:00,
2013-04-15 18:27:00,52.0,40.1,30.36,East,88,2.0,7.0,64,0.00,,,0.00,meteohub,2013-04-15 22:27:00,
2013-04-15 18:32:00,51.6,39.4,30.36,East,99,4.0,7.0,63,0.00,,,0.00,meteohub,2013-04-15 22:32:00,
2013-04-15 18:37:00,51.4,39.2,30.37,ESE,108,4.0,6.0,63,0.00,,,0.00,meteohub,2013-04-15 22:37:00,
2013-04-15 18:42:00,51.4,39.2,30.37,SE,128,2.0,7.0,63,0.00,,,0.00,meteohub,2013-04-15 22:42:00,
2013-04-15 18:47:00,51.3,39.6,30.37,ESE,110,3.0,7.0,64,0.00,,,0.00,meteohub,2013-04-15 22:47:00,
2013-04-15 18:52:00,51.3,39.9,30.37,ESE,102,2.0,7.0,65,0.00,,,0.00,meteohub,2013-04-15 22:52:00,
2013-04-15 18:57:00,51.3,39.9,30.37,ESE,108,3.0,6.0,65,0.00,,,0.00,meteohub,2013-04-15 22:57:00,
2013-04-15 19:02:00,51.3,39.9,30.38,ESE,120,4.0,6.0,65,0.00,,,0.00,meteohub,2013-04-15 23:02:00,
2013-04-15 19:07:00,51.3,40.3,30.38,ESE,103,2.0,7.0,66,0.00,,,0.00,meteohub,2013-04-15 23:07:00,
2013-04-15 19:12:00,51.1,40.1,30.37,ESE,122,3.0,7.0,66,0.00,,,0.00,meteohub,2013-04-15 23:12:00,
2013-04-15 19:17:00,51.1,40.8,30.37,East,99,3.0,8.0,68,0.00,,,0.00,meteohub,2013-04-15 23:17:00,
2013-04-15 19:22:00,51.1,40.8,30.37,ESE,108,2.0,8.0,68,0.00,,,0.00,meteohub,2013-04-15 23:22:00,
2013-04-15 19:27:00,50.9,41.2,30.38,SSE,155,2.0,8.0,69,0.00,,,0.00,meteohub,2013-04-15 23:27:00,
2013-04-15 19:32:00,50.9,41.2,30.38,East,97,2.0,5.0,69,0.00,,,0.00,meteohub,2013-04-15 23:32:00,
2013-04-15 19:37:00,50.7,41.4,30.38,ENE,77,3.0,5.0,70,0.00,,,0.00,meteohub,2013-04-15 23:37:00,
2013-04-15 19:42:00,50.7,41.4,30.39,ESE,120,4.0,6.0,70,0.00,,,0.00,meteohub,2013-04-15 23:42:00,
2013-04-15 19:47:00,50.7,41.4,30.39,East,99,5.0,6.0,70,0.00,,,0.00,meteohub,2013-04-15 23:47:00,
2013-04-15 19:52:00,50.7,41.4,30.39,ESE,108,3.0,6.0,70,0.00,,,0.00,meteohub,2013-04-15 23:52:00,
2013-04-15 19:57:00,50.7,41.0,30.39,ENE,75,2.0,5.0,69,0.00,,,0.00,meteohub,2013-04-15 23:57:00,
2013-04-15 20:02:00,50.7,41.4,30.39,ESE,113,2.0,5.0,70,0.00,,,0.00,meteohub,2013-04-16 00:02:00,
2013-04-15 20:07:00,50.7,41.4,30.39,SE,138,1.0,5.0,70,0.00,,,0.00,meteohub,2013-04-16 00:07:00,
2013-04-15 20:12:00,50.7,41.4,30.40,East,98,2.0,5.0,70,0.00,,,0.00,meteohub,2013-04-16 00:12:00,
2013-04-15 20:17:00,50.5,41.5,30.40,ESE,112,1.0,4.0,71,0.00,,,0.00,meteohub,2013-04-16 00:17:00,
2013-04-15 20:22:00,50.5,41.5,30.40,ESE,105,2.0,4.0,71,0.00,,,0.00,meteohub,2013-04-16 00:22:00,
2013-04-15 20:27:00,50.5,41.5,30.40,East,89,2.0,4.0,71,0.00,,,0.00,meteohub,2013-04-16 00:27:00,
2013-04-15 20:32:00,50.5,41.5,30.40,ESE,105,2.0,4.0,71,0.00,,,0.00,meteohub,2013-04-16 00:32:00,
2013-04-15 20:37:00,50.5,41.5,30.40,East,100,2.0,5.0,71,0.00,,,0.00,meteohub,2013-04-16 00:37:00,
2013-04-15 20:42:00,50.4,41.4,30.40,ESE,115,2.0,5.0,71,0.00,,,0.00,meteohub,2013-04-16 00:42:00,
2013-04-15 20:47:00,50.2,41.2,30.40,SSE,160,1.0,8.0,71,0.00,,,0.00,meteohub,2013-04-16 00:47:00,
2013-04-15 20:52:00,50.2,41.2,30.40,SE,128,0.0,8.0,71,0.00,,,0.00,meteohub,2013-04-16 00:52:00,
2013-04-15 20:57:00,50.4,41.7,30.41,SE,138,2.0,8.0,72,0.00,,,0.00,meteohub,2013-04-16 00:57:00,
2013-04-15 21:02:00,50.2,41.5,30.41,SE,134,1.0,5.0,72,0.00,,,0.00,meteohub,2013-04-16 01:02:00,
2013-04-15 21:07:00,50.2,41.9,30.41,ESE,104,1.0,3.0,73,0.00,,,0.00,meteohub,2013-04-16 01:07:00,
2013-04-15 21:12:00,49.8,41.9,30.41,SE,135,2.0,3.0,74,0.00,,,0.00,meteohub,2013-04-16 01:12:00,
2013-04-15 21:17:00,49.8,42.3,30.41,East,94,1.0,4.0,75,0.00,,,0.00,meteohub,2013-04-16 01:17:00,
2013-04-15 21:22:00,49.6,42.4,30.41,East,96,2.0,4.0,76,0.00,,,0.00,meteohub,2013-04-16 01:22:00,
2013-04-15 21:27:00,49.5,42.6,30.41,ESE,103,3.0,4.0,77,0.00,,,0.00,meteohub,2013-04-16 01:27:00,
2013-04-15 21:33:00,49.3,42.4,30.41,ESE,115,4.0,4.0,77,0.00,,,0.00,meteohub,2013-04-16 01:33:00,
2013-04-15 21:38:00,49.1,42.6,30.41,ESE,115,3.0,6.0,78,0.00,,,0.00,meteohub,2013-04-16 01:38:00,
2013-04-15 21:43:00,48.7,42.3,30.41,ESE,105,3.0,6.0,78,0.00,,,0.00,meteohub,2013-04-16 01:43:00,
2013-04-15 21:48:00,48.7,42.4,30.41,ESE,102,5.0,6.0,79,0.00,,,0.00,meteohub,2013-04-16 01:48:00,
2013-04-15 21:53:00,48.6,42.3,30.41,East,86,2.0,6.0,79,0.00,,,0.00,meteohub,2013-04-16 01:53:00,
2013-04-15 21:58:00,48.4,42.4,30.41,ENE,75,4.0,7.0,80,0.00,,,0.00,meteohub,2013-04-16 01:58:00,
2013-04-15 22:03:00,48.4,42.8,30.41,ESE,103,2.0,7.0,81,0.00,,,0.00,meteohub,2013-04-16 02:03:00,
2013-04-15 22:08:00,48.0,42.4,30.41,ESE,115,1.0,7.0,81,0.00,,,0.00,meteohub,2013-04-16 02:08:00,
2013-04-15 22:13:00,48.0,42.4,30.41,ESE,119,2.0,6.0,81,0.00,,,0.00,meteohub,2013-04-16 02:13:00,
2013-04-15 22:18:00,48.0,42.4,30.41,ESE,108,3.0,4.0,81,0.00,,,0.00,meteohub,2013-04-16 02:18:00,
2013-04-15 22:23:00,47.8,42.6,30.41,SE,141,2.0,6.0,82,0.00,,,0.00,meteohub,2013-04-16 02:23:00,
2013-04-15 22:28:00,47.8,42.6,30.41,East,91,2.0,6.0,82,0.00,,,0.00,meteohub,2013-04-16 02:28:00,
2013-04-15 22:33:00,47.8,43.0,30.41,ESE,117,2.0,6.0,83,0.00,,,0.00,meteohub,2013-04-16 02:33:00,
2013-04-15 22:38:00,47.8,43.0,30.41,SE,127,2.0,5.0,83,0.00,,,0.00,meteohub,2013-04-16 02:38:00,
2013-04-15 22:43:00,47.8,43.0,30.41,ESE,103,2.0,5.0,83,0.00,,,0.00,meteohub,2013-04-16 02:43:00,
2013-04-15 22:48:00,47.8,43.0,30.41,East,84,3.0,5.0,83,0.00,,,0.00,meteohub,2013-04-16 02:48:00,
2013-04-15 22:53:00,47.8,43.2,30.41,ESE,104,2.0,4.0,84,0.00,,,0.00,meteohub,2013-04-16 02:53:00,
2013-04-15 22:58:00,47.8,43.2,30.41,East,99,3.0,4.0,84,0.00,,,0.00,meteohub,2013-04-16 02:58:00,
2013-04-15 23:03:00,47.8,43.2,30.41,ESE,117,1.0,5.0,84,0.00,,,0.00,meteohub,2013-04-16 03:03:00,
2013-04-15 23:08:00,47.8,43.2,30.41,East,82,2.0,5.0,84,0.00,,,0.00,meteohub,2013-04-16 03:08:00,
2013-04-15 23:13:00,47.8,43.2,30.41,East,95,0.0,5.0,84,0.00,,,0.00,meteohub,2013-04-16 03:13:00,
2013-04-15 23:18:00,47.8,43.2,30.42,ESE,108,3.0,4.0,84,0.00,,,0.00,meteohub,2013-04-16 03:18:00,
2013-04-15 23:23:00,47.8,43.2,30.42,West,265,0.0,5.0,84,0.00,,,0.00,meteohub,2013-04-16 03:23:00,
2013-04-15 23:28:00,47.8,43.5,30.42,SE,124,1.0,5.0,85,0.00,,,0.00,meteohub,2013-04-16 03:28:00,
2013-04-15 23:33:00,47.7,43.3,30.42,East,84,2.0,5.0,85,0.00,,,0.00,meteohub,2013-04-16 03:33:00,
2013-04-15 23:38:00,47.7,43.3,30.42,ESE,114,3.0,5.0,85,0.00,,,0.00,meteohub,2013-04-16 03:38:00,
2013-04-15 23:43:00,47.7,43.3,30.42,ESE,108,2.0,5.0,85,0.00,,,0.00,meteohub,2013-04-16 03:43:00,
2013-04-15 23:48:00,47.7,43.3,30.42,ESE,104,1.0,5.0,85,0.00,,,0.00,meteohub,2013-04-16 03:48:00,
2013-04-15 23:53:00,47.7,43.7,30.41,SE,124,3.0,4.0,86,0.00,,,0.00,meteohub,2013-04-16 03:53:00,
2013-04-15 23:58:00,47.7,43.7,30.42,ESE,110,2.0,4.0,86,0.00,,,0.00,meteohub,2013-04-16 03:58:00,